Location: Newark
(27.9675°N, 86.8869°E)
Time: 21:27:46
(UTC+00:00)

Altair - Pass Details

Date: 23 October 2019
Orbit: 1502 x 1682 km, 47.2° (Epoch: 17 November)

Event Time Altitude Azimuth Distance (km) Brightness Sun altitude
Rises 11:31:32 0° 310° (NW) 4,875 10.7 0.2°
Reaches altitude 10° 11:34:39 10° 309° (NW) 3,904 10.2 -0.5°
Maximum altitude 11:44:43 79° 225° (SW) 1,706 7.9 -2.7°
Drops below altitude 10° 11:54:51 10° 140° (SE) 3,929 9.4 -4.9°
Sets 11:58:00 0° 139° (SE) 4,907 9.8 -5.6°
